WV4O Weather Reports


time (UTC)temp
F
wind
direction
speed
knots
gust
knots
rain 1hr
in
rain 24hr
in
rain mn
in
humidity
%
barometer
mb
20260510224516 72 24 6.1 13.9 0.00 0.00 0.00 57 1016.2
20260510223516 72 12 4.3 9.6 0.00 0.00 0.00 56 1016.2
20260510222516 72 14 5.2 7.8 0.00 0.00 0.00 56 1016.2
20260510221516 72 27 7.0 9.6 0.00 0.00 0.00 56 1016.1
20260510220537 72 26 6.1 10.4 0.00 0.00 0.00 56 1016.1
20260510215516 73 23 7.0 11.3 0.00 0.00 0.00 57 1016.1
20260510214516 73 34 6.1 10.4 0.00 0.00 0.00 58 1016.1
20260510213517 73 17 6.1 10.4 0.00 0.00 0.00 58 1016.2
20260510212517 74 28 7.0 12.2 0.00 0.00 0.00 59 1016.2
20260510211517 75 30 5.2 9.6 0.00 0.00 0.00 61 1015.9
20260510210518 76 36 6.1 9.6 0.00 0.00 0.00 62 1015.5
20260510205517 76 13 7.8 13.0 0.00 0.00 0.00 64 1015.3
20260510204518 77 13 6.1 11.3 0.00 0.00 0.00 64 1015.8
20260510203517 79 3 6.1 10.4 0.00 0.00 0.00 57 1015.0
20260510202518 79 331 2.6 7.8 0.00 0.00 0.00 52 1015.6
20260510201517 79 316 2.6 5.2 0.00 0.00 0.00 52 1015.8
20260510200518 79 292 2.6 7.0 0.00 0.00 0.00 50 1015.2
20260510195517 79 336 4.3 11.3 0.00 0.00 0.00 51 1015.2
20260510194518 79 330 3.5 7.0 0.00 0.00 0.00 51 1015.2
20260510193518 78 334 3.5 7.8 0.00 0.00 0.00 52 1015.7
20260510192538 79 348 4.3 7.8 0.00 0.00 0.00 52 1015.3
20260510191518 79 339 3.5 7.0 0.00 0.00 0.00 51 1015.5
20260510190536 79 15 3.5 6.1 0.00 0.00 0.00 51 1015.4
20260510185515 78 358 2.6 5.2 0.00 0.00 0.00 53 1015.2
20260510184537 78 347 2.6 6.1 0.00 0.00 0.00 52 1015.1
20260510183516 79 310 3.5 7.8 0.00 0.00 0.00 51 1015.0
20260510182516 78 294 2.6 6.1 0.00 0.00 0.00 51 1015.1
20260510181516 77 311 3.5 7.8 0.00 0.00 0.00 53 1015.3
20260510180517 77 17 2.6 5.2 0.00 0.00 0.00 54 1015.3
20260510175517 78 22 2.6 4.3 0.00 0.00 0.00 51 1015.2
20260510174517 77 311 2.6 6.1 0.00 0.00 0.00 55 1015.3
20260510173557 76 333 2.6 7.0 0.00 0.00 0.00 55 1015.3
20260510172517 76 12 3.5 9.6 0.00 0.00 0.00 56 1015.6
20260510171517 76 13 4.3 7.8 0.00 0.00 0.00 56 1015.6
20260510170518 76 342 4.3 8.7 0.00 0.00 0.00 56 1015.9
20260510165517 76 2 4.3 7.8 0.00 0.00 0.00 56 1015.7
20260510164539 76 5 4.3 7.8 0.00 0.00 0.00 57 1015.9
20260510163518 76 27 3.5 6.1 0.00 0.00 0.00 57 1015.3
20260510162519 76 15 4.3 7.8 0.00 0.00 0.00 59 1015.3
20260510161518 76 9 3.5 8.7 0.00 0.00 0.00 59 1015.5
20260510160519 77 321 3.5 9.6 0.00 0.00 0.00 53 1015.1
20260510155538 78 303 4.3 7.8 0.00 0.00 0.00 49 1015.1
20260510154558 79 297 4.3 7.8 0.00 0.00 0.00 47 1014.8
20260510153516 78 291 2.6 7.0 0.00 0.00 0.00 47 1014.7
20260510152516 78 299 4.3 8.7 0.00 0.00 0.00 46 1014.7
20260510151516 77 284 2.6 6.1 0.00 0.00 0.00 48 1014.7
20260510150516 77 256 6.1 9.6 0.00 0.00 0.00 48 1014.5
20260510145516 77 263 4.3 7.8 0.00 0.00 0.00 49 1014.3
20260510144537 76 244 3.5 7.0 0.00 0.00 0.00 49 1014.0
20260510143517 75 233 2.6 5.2 0.00 0.00 0.00 52 1013.8
20260510142537 75 232 5.2 7.8 0.00 0.00 0.00 54 1013.9
20260510140518 73 230 3.5 7.0 0.00 0.00 0.00 58 1013.8
20260510135518 72 234 4.3 7.0 0.00 0.00 0.00 58 1014.1
20260510134517 71 233 3.5 6.1 0.00 0.00 0.00 59 1014.1
20260510133517 70 237 2.6 5.2 0.00 0.00 0.00 61 1013.9
20260510132538 68 223 3.5 4.3 0.00 0.00 0.00 65 1013.9
20260510131519 66 216 3.5 6.1 0.00 0.00 0.00 68 1014.2
20260510130539 66 232 4.3 6.1 0.00 0.00 0.00 68 1014.3
20260510125518 65 229 3.5 6.1 0.00 0.00 0.00 68 1013.9
20260510124518 64 222 3.5 5.2 0.00 0.00 0.00 68 1013.8
20260510123519 63 219 3.5 5.2 0.00 0.00 0.00 71 1014.0
20260510122539 62 219 4.3 6.1 0.00 0.00 0.00 72 1014.0
20260510121518 61 230 3.5 5.2 0.00 0.00 0.00 74 1013.9
20260510120519 60 231 3.5 5.2 0.00 0.00 0.00 75 1013.8
20260510115516 59 241 2.6 4.3 0.00 0.00 0.00 78 1013.8
20260510114516 58 218 2.6 4.3 0.00 0.00 0.00 81 1013.8
20260510113536 58 218 1.7 2.6 0.00 0.00 0.00 81 1013.8
20260510112536 58 199 1.7 2.6 0.00 0.00 0.00 81 1013.9
20260510111516 57 222 0.9 2.6 0.00 0.00 0.00 81 1013.9
20260510110536 58 203 1.7 2.6 0.00 0.00 0.00 80 1013.9
20260510105516 58 219 0.9 1.7 0.00 0.00 0.00 79 1014.1
20260510104517 59 206 1.7 3.5 0.00 0.00 0.00 77 1013.9
20260510103517 60 210 1.7 3.5 0.00 0.00 0.00 73 1013.7
20260510102517 60 240 1.7 3.5 0.00 0.00 0.00 73 1013.7
20260510101517 60 351 2.6 4.3 0.00 0.00 0.00 72 1013.5
20260510100517 59 241 1.7 4.3 0.00 0.00 0.00 72 1013.2
20260510095517 57 351 3.5 9.6 0.00 0.00 0.00 82 1013.6
20260510094517 58 289 0.0 0.9 0.00 0.00 0.00 82 1013.6
20260510093518 59 223 0.0 1.7 0.00 0.00 0.00 80 1013.5
20260510092537 60 251 0.0 1.7 0.00 0.00 0.00 75 1013.2
20260510091517 61 239 0.9 1.7 0.00 0.00 0.00 71 1013.0
20260510090518 60 252 1.7 3.5 0.00 0.00 0.00 73 1012.9
20260510085518 61 230 1.7 3.5 0.00 0.00 0.00 71 1012.7
20260510084519 61 223 1.7 2.6 0.00 0.00 0.00 69 1012.7
20260510083519 61 250 1.7 2.6 0.00 0.00 0.00 73 1012.5
20260510082536 61 235 2.6 3.5 0.00 0.00 0.00 71 1012.4
20260510081516 62 226 1.7 3.5 0.00 0.00 0.00 68 1012.3
20260510080515 62 226 2.6 4.3 0.00 0.00 0.00 69 1012.3
20260510075516 62 224 3.5 5.2 0.00 0.00 0.00 67 1012.1
20260510074516 62 231 3.5 5.2 0.00 0.00 0.00 69 1012.4
20260510073517 63 232 2.6 3.5 0.00 0.00 0.00 68 1012.3
20260510072516 63 220 3.5 4.3 0.00 0.00 0.00 65 1012.1
20260510071518 63 252 2.6 3.5 0.00 0.00 0.00 67 1012.4
20260510070517 63 247 2.6 3.5 0.00 0.00 0.00 65 1012.1
20260510065517 63 243 2.6 4.3 0.00 0.00 0.00 66 1012.0
20260510064517 63 240 3.5 4.3 0.00 0.00 0.00 66 1012.0
20260510063518 63 225 3.5 4.3 0.00 0.00 0.00 66 1011.9
20260510062517 64 231 2.6 3.5 0.00 0.00 0.00 66 1012.0
20260510061517 63 229 3.5 4.3 0.00 0.00 0.00 66 1012.1
20260510060518 64 239 2.6 3.5 0.00 0.00 0.00 67 1012.2
20260510055517 64 237 1.7 2.6 0.00 0.00 0.00 64 1012.0
20260510054536 63 242 1.7 3.5 0.00 0.00 0.00 68 1012.1
20260510053516 64 239 2.6 2.6 0.00 0.00 0.00 68 1012.2
20260510052516 64 228 1.7 2.6 0.00 0.00 0.00 65 1012.1
20260510051516 65 236 2.6 3.5 0.00 0.00 0.00 64 1011.9
20260510050516 65 223 1.7 3.5 0.00 0.00 0.00 64 1012.0
20260510045536 65 241 1.7 2.6 0.00 0.00 0.00 65 1011.8
20260510044516 65 239 1.7 3.5 0.00 0.00 0.00 64 1011.8
20260510043516 65 237 2.6 3.5 0.00 0.00 0.00 62 1011.8
20260510042517 66 231 2.6 4.3 0.00 0.00 0.00 62 1011.8
20260510041517 65 233 3.5 5.2 0.00 0.00 0.00 63 1011.8
20260510040517 65 236 3.5 5.2 0.00 0.00 0.00 63 1011.8
20260510035517 65 233 3.5 5.2 0.00 0.00 0.00 64 1012.0
20260510034517 66 233 2.6 3.5 0.00 0.00 0.00 64 1012.0
20260510033518 66 220 2.6 3.5 0.00 0.00 0.00 62 1012.0
20260510032518 66 233 2.6 3.5 0.00 0.00 0.00 62 1012.0
20260510031518 66 235 1.7 2.6 0.00 0.00 0.00 65 1012.2
20260510030519 66 226 1.7 2.6 0.00 0.00 0.00 66 1012.2
20260510025538 67 209 0.9 1.7 0.00 0.00 0.00 65 1012.2
20260510024518 68 211 0.9 1.7 0.00 0.00 0.00 62 1012.2
20260510023518 69 210 0.9 2.6 0.00 0.00 0.00 58 1012.0
20260510022518 70 241 1.7 3.5 0.00 0.00 0.00 55 1011.8
20260510021518 70 240 1.7 2.6 0.00 0.00 0.00 56 1011.8
20260510020516 71 226 1.7 2.6 0.00 0.00 0.00 55 1011.7
20260510015516 72 224 1.7 2.6 0.00 0.00 0.00 51 1011.4
20260510014516 73 241 1.7 2.6 0.00 0.00 0.00 49 1011.2
20260510013516 73 261 1.7 3.5 0.00 0.00 0.00 49 1011.1
20260510012516 73 239 1.7 2.6 0.00 0.00 0.00 49 1011.1
20260510011516 74 242 1.7 3.5 0.00 0.00 0.00 47 1011.0
20260510010536 75 236 2.6 3.5 0.00 0.00 0.00 45 1010.8
20260510005516 75 244 2.6 4.3 0.00 0.00 0.00 44 1010.7
20260510004517 76 218 3.5 4.3 0.00 0.00 0.00 43 1010.6
20260510003517 77 233 2.6 4.3 0.00 0.00 0.00 41 1010.4
20260510002517 78 232 3.5 4.3 0.00 0.00 0.00 40 1010.2
20260510001518 79 245 3.5 5.2 0.00 0.00 0.00 39 1010.1
20260510000518 79 229 4.3 6.1 0.00 0.00 0.00 38 1010.0
20260509235517 80 238 3.5 5.2 0.00 0.00 0.00 37 1009.8
20260509234518 80 242 3.5 6.1 0.00 0.00 0.00 36 1009.6
20260509233518 80 239 4.3 7.8 0.00 0.00 0.00 36 1009.6
20260509232538 80 259 2.6 7.0 0.00 0.00 0.00 35 1009.6
20260509231518 80 224 4.3 7.0 0.00 0.00 0.00 36 1009.6
20260509230538 80 235 3.5 7.0 0.00 0.00 0.00 35 1009.6
20260509225518 81 263 2.6 7.0 0.00 0.00 0.00 34 1009.7